Location: Leo
(52.0556°N, 112.3605°W)
Time: 00:48:23
(UTC+00:00)

ISS - Visible Passes

Search period start: 20 July 2024 00:00
Search period end: 30 July 2024 00:00
Orbit: 409 x 423 km, 51.6° (Epoch: 19 July)

Date Brightness Start Highest point End Pass type
(mag) Time Alt. Az. Time Alt. Az. Time Alt. Az.
20 Jul -3.3 05:34:43 10° W 05:37:53 42° SSW 05:39:23 25° SSE visible
21 Jul -3.6 04:46:15 10° W 04:49:31 55° SSW 04:52:26 12° ESE visible
21 Jul -1.8 06:23:32 10° W 06:25:18 17° SW 06:25:18 17° SW visible
22 Jul -2.4 05:34:42 10° W 05:37:27 24° SSW 05:38:22 21° S visible
23 Jul -2.8 04:46:01 10° W 04:49:03 33° SSW 04:51:26 14° SSE visible
24 Jul -1.5 05:35:16 10° WSW 05:36:41 12° SW 05:37:22 12° SSW visible
25 Jul -1.8 04:45:58 10° W 04:48:18 18° SW 04:50:28 11° S visible
